Tracking 35030 objects as of 11-Aug-2026
HD Live streaming from Space Station
objects crossing your sky now

STARLINK-2418

Track STARLINK-2418 now!
10-day predictions
STARLINK-2418 is classified as:


NORAD ID: 48097
Int'l Code: 2021-027F
Launch date: April 7, 2021
Source: United States (US)
Launch site: AIR FORCE EASTERN TEST RANGE (AFETR)
Your satellite tracking list
Your tracking list is empty




NASA's NSSDC Master Catalog

Two Line Element Set (TLE):
1 48097U 21027F   26222.81513573 -.00001288  00000-0 -29731-4 0  9994
2 48097  53.1598 155.7198 0001382  92.3255 267.7905 15.31712092296292
Source of the keplerian elements: AFSPC